IU3OVK-13 Weather Reports


time (UTC)temp
C
wind
direction
speed
KPH
gust
KPH
rain 1hr
cm
rain 24hr
cm
rain mn
cm
humidity
%
barometer
mb
20260906090924 41 0.0 0.0 0.00 0.00 0.00 70 984.6
20260906085903 43 0.0 0.0 0.00 0.00 0.00 69 976.7
20260906084843 41 0.0 0.0 0.00 0.00 0.00 73 993.0
20260906082803 38 0.0 0.0 0.00 0.00 0.00 75 994.2
20260906081743 40 0.0 0.0 0.00 0.00 0.00 74 986.2
20260906080723 39 0.0 0.0 0.00 0.00 0.00 77 997.4
20260906075702 40 0.0 0.0 0.00 0.00 0.00 80 999.7
20260906073622 37 0.0 0.0 0.00 0.00 0.00 85 1004.9
20260906072602 33 0.0 0.0 0.00 0.00 0.00 91 1014.4
20260906071542 36 0.0 0.0 0.00 0.00 0.00 91 1007.4
20260906070521 33 0.0 0.0 0.00 0.00 0.00 99 1014.1
20260906064441 28 0.0 0.0 0.00 0.00 0.00 99 1017.4
20260906063421 32 0.0 0.0 0.00 0.00 0.00 99 1013.6
20260906062401 32 0.0 0.0 0.00 0.00 0.00 99 1015.3
20260906055258 18 0.0 0.0 0.00 0.00 0.00 99 1015.4
20260906054238 18 0.0 0.0 0.00 0.00 0.00 99 1015.3
20260906045057 18 0.0 0.0 0.00 0.00 0.00 99 1014.5
20260906044037 17 0.0 0.0 0.00 0.00 0.00 99 1014.7
20260906043017 17 0.0 0.0 0.00 0.00 0.00 99 1014.8
20260906041957 18 0.0 0.0 0.00 0.00 0.00 99 1014.6
20260906040936 18 0.0 0.0 0.00 0.00 0.00 99 1014.2
20260906035916 18 0.0 0.0 0.00 0.00 0.00 99 1013.9
20260906034856 18 0.0 0.0 0.00 0.00 0.00 99 1014.1
20260906033836 18 0.0 0.0 0.00 0.00 0.00 99 1013.9
20260906031755 18 0.0 0.0 0.00 0.00 0.00 99 1014.0
20260906030735 19 0.0 0.0 0.00 0.00 0.00 99 1013.6
20260906025715 18 0.0 0.0 0.00 0.00 0.00 99 1013.4
20260906024655 18 0.0 0.0 0.00 0.00 0.00 99 1013.6
20260906022614 19 0.0 0.0 0.00 0.00 0.00 99 1013.3
20260906021555 19 0.0 0.0 0.00 0.00 0.00 99 1013.1
20260906020534 18 0.0 0.0 0.00 0.00 0.00 99 1013.3
20260906015514 19 0.0 0.0 0.00 0.00 0.00 99 1013.1
20260906013433 19 0.0 0.0 0.00 0.00 0.00 99 1013.2
20260905204332 23 0.0 0.0 0.00 0.00 0.00 99 1012.2
20260905203312 23 0.0 0.0 0.00 0.00 0.00 99 1012.4
20260905202252 24 0.0 0.0 0.00 0.00 0.00 99 1011.8
20260905201232 23 0.0 0.0 0.00 0.00 0.00 99 1012.6
20260905200212 25 0.0 0.0 0.00 0.00 0.00 99 1012.0
20260905195151 24 0.0 0.0 0.00 0.00 0.00 99 1011.8
20260905194131 24 0.0 0.0 0.00 0.00 0.00 99 1012.3
20260905193111 24 0.0 0.0 0.00 0.00 0.00 99 1012.2
20260905192051 25 0.0 0.0 0.00 0.00 0.00 99 1012.2
20260905191031 25 0.0 0.0 0.00 0.00 0.00 99 1011.8
20260905190010 25 0.0 0.0 0.00 0.00 0.00 99 1012.0
20260905184950 26 0.0 0.0 0.00 0.00 0.00 99 1012.0
20260905183930 26 0.0 0.0 0.00 0.00 0.00 99 1011.8
20260905182910 26 0.0 0.0 0.00 0.00 0.00 99 1011.5
20260905181850 26 0.0 0.0 0.00 0.00 0.00 99 1011.6
20260905180829 27 0.0 0.0 0.00 0.00 0.00 99 1010.8
20260905175901 27 0.0 0.0 0.00 0.00 0.00 99 1010.9
20260905175809 27 0.0 0.0 0.00 0.00 0.00 99 1010.9
20260905174749 27 0.0 0.0 0.00 0.00 0.00 99 1010.5
20260905173729 27 0.0 0.0 0.00 0.00 0.00 99 1010.4
20260905172709 28 0.0 0.0 0.00 0.00 0.00 99 1010.1
20260905171648 28 0.0 0.0 0.00 0.00 0.00 99 1009.8
20260905170628 29 0.0 0.0 0.00 0.00 0.00 99 1009.7
20260905165608 29 0.0 0.0 0.00 0.00 0.00 99 1009.7
20260905162507 30 0.0 0.0 0.00 0.00 0.00 99 1008.9
20260905161447 30 0.0 0.0 0.00 0.00 0.00 99 1009.0
20260905160427 30 0.0 0.0 0.00 0.00 0.00 99 1009.1
20260905155406 30 0.0 0.0 0.00 0.00 0.00 99 1008.9
20260905154346 30 0.0 0.0 0.00 0.00 0.00 99 1008.5
20260905153326 30 0.0 0.0 0.00 0.00 0.00 99 1008.6
20260905151246 30 0.0 0.0 0.00 0.00 0.00 99 1008.5
20260905150225 31 0.0 0.0 0.00 0.00 0.00 99 1007.7
20260905145205 31 0.0 0.0 0.00 0.00 0.00 99 1008.2
20260905144145 31 0.0 0.0 0.00 0.00 0.00 99 1007.8
20260905143125 31 0.0 0.0 0.00 0.00 0.00 99 1007.9
20260905142105 31 0.0 0.0 0.00 0.00 0.00 99 1008.2
20260905141152 31 0.0 0.0 0.00 0.00 0.00 99 1008.8
20260905141044 31 0.0 0.0 0.00 0.00 0.00 99 1008.8
20260905132924 31 0.0 0.0 0.00 0.00 0.00 99 1009.4
20260905131903 31 0.0 0.0 0.00 0.00 0.00 99 1009.1
20260905130843 31 0.0 0.0 0.00 0.00 0.00 99 1009.2
20260905125823 32 0.0 0.0 0.00 0.00 0.00 99 1008.9
20260905124803 32 0.0 0.0 0.00 0.00 0.00 99 1008.9
20260905122722 32 0.0 0.0 0.00 0.00 0.00 99 1009.8
20260905121702 33 0.0 0.0 0.00 0.00 0.00 99 1008.1
20260905120642 31 0.0 0.0 0.00 0.00 0.00 99 1010.4
20260905115622 33 0.0 0.0 0.00 0.00 0.00 99 1009.8
20260905114602 35 0.0 0.0 0.00 0.00 0.00 99 1007.3
20260905113541 33 0.0 0.0 0.00 0.00 0.00 99 1009.5
20260905112521 34 0.0 0.0 0.00 0.00 0.00 96 1008.8
20260905110441 40 0.0 0.0 0.00 0.00 0.00 79 990.5
20260905105421 40 0.0 0.0 0.00 0.00 0.00 79 989.8
20260905103338 38 0.0 0.0 0.00 0.00 0.00 88 1007.5
20260905102318 38 0.0 0.0 0.00 0.00 0.00 88 1007.5
20260905101256 45 0.0 0.0 0.00 0.00 0.00 78 988.7
20260905100236 40 0.0 0.0 0.00 0.00 0.00 80 995.1
20260905095216 42 0.0 0.0 0.00 0.00 0.00 80 991.0
20260905094155 42 0.0 0.0 0.00 0.00 0.00 80 991.0
20260905093133 34 0.0 0.0 0.00 0.00 0.00 99 1010.5
20260905092114 35 0.0 0.0 0.00 0.00 0.00 99 1008.5